Time,TemperatureF,DewpointF,PressureIn,WindDirection,WindDirectionDegrees,WindSpeedMPH,WindSpeedGustMPH,Humidity,HourlyPrecipIn,Conditions,Clouds,dailyrainin,SoftwareType,DateUTC
2013-02-11 00:22:00,-7.0,-99.9,-100.00,North,-999,-999.0,-999.0,-999,0.00,,,0.12,,2013-02-11 07:22:00,
2013-02-11 00:32:00,-7.0,-99.9,-100.00,North,-999,-999.0,-999.0,-999,0.00,,,0.12,,2013-02-11 07:32:00,
2013-02-11 00:42:00,-7.0,-99.9,-100.00,North,-999,-999.0,-999.0,-999,0.00,,,0.12,,2013-02-11 07:42:00,
2013-02-11 01:42:00,-9.0,-99.9,-100.00,North,-999,-999.0,-999.0,-999,0.00,,,-99.99,,2013-02-11 08:42:00,
2013-02-11 02:22:00,-10.0,-99.9,-100.00,North,-999,-999.0,-999.0,-999,0.00,,,0.12,,2013-02-11 09:22:00,
2013-02-11 02:32:00,-10.0,-99.9,-100.00,North,-999,-999.0,-999.0,-999,0.00,,,0.12,,2013-02-11 09:32:00,
2013-02-11 02:42:00,-10.0,-99.9,-100.00,North,-999,-999.0,-999.0,-999,0.00,,,0.12,,2013-02-11 09:42:00,
2013-02-11 03:22:00,-12.0,-99.9,-100.00,North,-999,-999.0,-999.0,-999,0.00,,,0.12,,2013-02-11 10:22:00,
2013-02-11 03:32:00,-12.0,-99.9,-100.00,North,-999,-999.0,-999.0,-999,0.00,,,0.12,,2013-02-11 10:32:00,
2013-02-11 03:42:00,-12.0,-99.9,-100.00,North,-999,-999.0,-999.0,-999,0.00,,,0.12,,2013-02-11 10:42:00,
2013-02-11 04:22:00,-14.0,-99.9,-100.00,North,-999,-999.0,-999.0,-999,0.00,,,0.12,,2013-02-11 11:22:00,
2013-02-11 04:32:00,-14.0,-99.9,-100.00,North,-999,-999.0,-999.0,-999,0.00,,,0.12,,2013-02-11 11:32:00,
2013-02-11 04:42:00,-14.0,-99.9,-100.00,North,-999,-999.0,-999.0,-999,0.00,,,0.12,,2013-02-11 11:42:00,
2013-02-11 05:22:00,-16.0,-99.9,-100.00,North,-999,-999.0,-999.0,-999,0.00,,,0.11,,2013-02-11 12:22:00,
2013-02-11 05:32:00,-16.0,-99.9,-100.00,North,-999,-999.0,-999.0,-999,0.00,,,0.11,,2013-02-11 12:32:00,
2013-02-11 05:43:00,-16.0,-99.9,-100.00,North,-999,-999.0,-999.0,-999,0.00,,,0.11,,2013-02-11 12:43:00,
2013-02-11 06:22:00,-17.0,-99.9,-100.00,North,-999,-999.0,-999.0,-999,0.00,,,0.11,,2013-02-11 13:22:00,
2013-02-11 06:33:00,-17.0,-99.9,-100.00,North,-999,-999.0,-999.0,-999,0.00,,,0.11,,2013-02-11 13:33:00,
2013-02-11 06:42:00,-17.0,-99.9,-100.00,North,-999,-999.0,-999.0,-999,0.00,,,0.11,,2013-02-11 13:42:00,
2013-02-11 07:22:00,-17.0,-99.9,-100.00,North,-999,-999.0,-999.0,-999,0.00,,,0.11,,2013-02-11 14:22:00,
2013-02-11 07:33:00,-17.0,-99.9,-100.00,North,-999,-999.0,-999.0,-999,0.00,,,0.11,,2013-02-11 14:33:00,
2013-02-11 07:43:00,-17.0,-99.9,-100.00,North,-999,-999.0,-999.0,-999,0.00,,,0.11,,2013-02-11 14:43:00,
2013-02-11 08:22:00,-17.0,-99.9,-100.00,North,-999,-999.0,-999.0,-999,0.00,,,0.07,,2013-02-11 15:22:00,
2013-02-11 08:32:00,-17.0,-99.9,-100.00,North,-999,-999.0,-999.0,-999,0.00,,,0.07,,2013-02-11 15:32:00,
2013-02-11 08:43:00,-17.0,-99.9,-100.00,North,-999,-999.0,-999.0,-999,0.00,,,0.07,,2013-02-11 15:43:00,
2013-02-11 09:22:00,-16.0,-99.9,-100.00,North,-999,-999.0,-999.0,-999,0.00,,,0.06,,2013-02-11 16:22:00,
2013-02-11 09:33:00,-16.0,-99.9,-100.00,North,-999,-999.0,-999.0,-999,0.00,,,0.06,,2013-02-11 16:33:00,
2013-02-11 09:43:00,-16.0,-99.9,-100.00,North,-999,-999.0,-999.0,-999,0.00,,,0.06,,2013-02-11 16:43:00,
2013-02-11 10:22:00,-6.0,-99.9,-100.00,North,-999,-999.0,-999.0,-999,0.00,,,0.06,,2013-02-11 17:22:00,
2013-02-11 10:33:00,-6.0,-99.9,-100.00,North,-999,-999.0,-999.0,-999,0.00,,,0.06,,2013-02-11 17:33:00,
2013-02-11 10:42:00,-6.0,-99.9,-100.00,North,-999,-999.0,-999.0,-999,0.00,,,0.06,,2013-02-11 17:42:00,
2013-02-11 11:22:00,1.0,-99.9,-100.00,North,-999,-999.0,-999.0,-999,0.00,,,0.02,,2013-02-11 18:22:00,
2013-02-11 11:32:00,1.0,-99.9,-100.00,North,-999,-999.0,-999.0,-999,0.00,,,0.02,,2013-02-11 18:32:00,
2013-02-11 11:42:00,1.0,-99.9,-100.00,North,-999,-999.0,-999.0,-999,0.00,,,0.02,,2013-02-11 18:42:00,
2013-02-11 12:22:00,14.0,-99.9,-100.00,North,-999,-999.0,-999.0,-999,0.00,,,0.00,,2013-02-11 19:22:00,
2013-02-11 12:32:00,14.0,-99.9,-100.00,North,-999,-999.0,-999.0,-999,0.00,,,0.00,,2013-02-11 19:32:00,
2013-02-11 12:42:00,14.0,-99.9,-100.00,North,-999,-999.0,-999.0,-999,0.00,,,0.00,,2013-02-11 19:42:00,
2013-02-11 15:22:00,32.0,-99.9,-100.00,North,-999,-999.0,-999.0,-999,-99.99,,,0.00,,2013-02-11 22:22:00,
2013-02-11 16:22:00,21.0,-99.9,-100.00,North,-999,-999.0,-999.0,-999,-99.99,,,0.00,,2013-02-11 23:22:00,
2013-02-11 16:32:00,21.0,-99.9,-100.00,North,-999,-999.0,-999.0,-999,-99.99,,,0.00,,2013-02-11 23:32:00,
2013-02-11 16:42:00,21.0,-99.9,-100.00,North,-999,-999.0,-999.0,-999,-99.99,,,0.00,,2013-02-11 23:42:00,
2013-02-11 17:22:00,16.0,-99.9,-100.00,North,-999,-999.0,-999.0,-999,0.00,,,0.00,,2013-02-12 00:22:00,
2013-02-11 17:32:00,16.0,-99.9,-100.00,North,-999,-999.0,-999.0,-999,0.00,,,0.00,,2013-02-12 00:32:00,
2013-02-11 17:43:00,16.0,-99.9,-100.00,North,-999,-999.0,-999.0,-999,0.00,,,0.00,,2013-02-12 00:43:00,
2013-02-11 18:22:00,12.0,-99.9,-100.00,North,-999,-999.0,-999.0,-999,0.00,,,0.00,,2013-02-12 01:22:00,
2013-02-11 18:32:00,12.0,-99.9,-100.00,North,-999,-999.0,-999.0,-999,0.00,,,0.00,,2013-02-12 01:32:00,
2013-02-11 18:42:00,12.0,-99.9,-100.00,North,-999,-999.0,-999.0,-999,0.00,,,0.00,,2013-02-12 01:42:00,
2013-02-11 19:22:00,8.0,-99.9,-100.00,North,-999,-999.0,-999.0,-999,0.00,,,0.00,,2013-02-12 02:22:00,
2013-02-11 19:32:00,8.0,-99.9,-100.00,North,-999,-999.0,-999.0,-999,0.00,,,0.00,,2013-02-12 02:32:00,
2013-02-11 19:42:00,8.0,-99.9,-100.00,North,-999,-999.0,-999.0,-999,0.00,,,0.00,,2013-02-12 02:42:00,
2013-02-11 20:22:00,7.0,-99.9,-100.00,North,-999,-999.0,-999.0,-999,0.00,,,0.00,,2013-02-12 03:22:00,
2013-02-11 20:32:00,7.0,-99.9,-100.00,North,-999,-999.0,-999.0,-999,0.00,,,0.00,,2013-02-12 03:32:00,
2013-02-11 20:42:00,7.0,-99.9,-100.00,North,-999,-999.0,-999.0,-999,0.00,,,0.00,,2013-02-12 03:42:00,
2013-02-11 21:22:00,3.0,-99.9,-100.00,North,-999,-999.0,-999.0,-999,0.00,,,0.00,,2013-02-12 04:22:00,
2013-02-11 21:32:00,3.0,-99.9,-100.00,North,-999,-999.0,-999.0,-999,0.00,,,0.00,,2013-02-12 04:32:00,
2013-02-11 21:42:00,3.0,-99.9,-100.00,North,-999,-999.0,-999.0,-999,0.00,,,0.00,,2013-02-12 04:42:00,
2013-02-11 22:22:00,2.0,-99.9,-100.00,North,-999,-999.0,-999.0,-999,0.00,,,0.00,,2013-02-12 05:22:00,
2013-02-11 22:32:00,2.0,-99.9,-100.00,North,-999,-999.0,-999.0,-999,0.00,,,0.00,,2013-02-12 05:32:00,
2013-02-11 22:42:00,2.0,-99.9,-100.00,North,-999,-999.0,-999.0,-999,0.00,,,0.00,,2013-02-12 05:42:00,